Weather Service Report


660 
ASUS45 KBOI 232010
RWRID 

IDAHO REGIONAL WEATHER ROUNDUP
NATIONAL WEATHER SERVICE BOISE ID
100 PM MST SUN FEB 23 2020

NOTE: "FAIR" INDICATES FEW OR NO CLOUDS BELOW 12000 FEET
WITH NO SIGNIFICANT WEATHER AND/OR OBSTRUCTIONS TO VISIBILITY

IDZ012-014-232100-
SOUTHWEST IDAHO

  
CITY           SKY/WX    TMP DP  RH WIND       PRES   REMARKS
BOISE          PTSUNNY   49  25  39 SE14      30.08F                  
CALDWELL       PTSUNNY   49  26  41 SE12      30.08F                  
MOUNTAIN HOME  PTSUNNY   48  22  36 CALM      30.09F                  
$$

IDZ016-017-232100-
SOUTHCENTRAL IDAHO

  
CITY           SKY/WX    TMP DP  RH WIND       PRES   REMARKS
BURLEY         LGT RAIN  50  22  33 W10       30.06F                  
JEROME         MOSUNNY   49  24  37 NW10      30.08F                  
TWIN FALLS     SUNNY     52  24  33 NW10      30.08F                  
$$

IDZ019>023-232100-
SOUTHEAST IDAHO

  
CITY           SKY/WX    TMP DP  RH WIND       PRES   REMARKS
IDAHO FALLS    SUNNY     24  16  71 NW7       30.09F WCI  16          
POCATELLO      SUNNY     45  19  35 SW10      30.08F                  
REXBURG        SUNNY     25  15  66 VRB3      30.10S                  
$$

IDZ006-010-011-018-031-032-232100-
CENTRAL IDAHO MOUNTAINS

  
CITY           SKY/WX    TMP DP  RH WIND       PRES   REMARKS
MCCALL         CLOUDY    32  19  58 S3        29.99F                  
HAILEY         MOSUNNY   36  21  55 SE8       30.07F WCI  29          
STANLEY          N/A     28  13  53 N6        30.03F WCI  22          
SALMON         CLOUDY    21   8  57 MISG      30.05F                  
CHALLIS        CLOUDY    23  13  65 CALM      30.00F                  
$$

IDZ002-004-006-007-026-232100-
NORTHERN IDAHO

  
CITY           SKY/WX    TMP DP  RH WIND       PRES   REMARKS
LEWISTON       CLOUDY    58  31  35 SW14      29.82F                  
LOWELL           N/A     42  34  73 VRB3      29.96F                  
COEUR D'ALENE  CLOUDY    43  29  57 S15G22    29.78F                  
MULLAN PASS    LGT SNOW  28  23  81 SE7       29.77F VSB 3/4 WCI  21  
$$
  

Return to Home page


Western Regional Climate Center, wrcc@dri.edu